Coatesville, PA

5:11 AM EST on November 20, 2019 (GMT -0500)
Chester County Carlson

Weather History for KMQS - September, 2019

Change the Weather History Date:

Thursday, September 12, 2019

  Actual Average (WUND) Record (WUND)
Temperature  
Mean Temperature 75 °F -  
Max Temperature 84 °F - - (-1)
Min Temperature 66 °F - - (-1)
Cooling Degree Days 10    
Growing Degree Days 25 (Base 50)    
Moisture  
Dew Point 70 °F    
Average Humidity 86    
Maximum Humidity 100    
Minimum Humidity 58    
Precipitation  
Precipitation 0.33 in - - ()
Sea Level Pressure  
Sea Level Pressure 30.11 in    
Wind  
Wind Speed 6 mph ()    
Max Wind Speed 18 mph    
Max Gust Speed 24 mph    
Visibility 8.4 miles    
Events Rain    
Averages and records for this station are not official NWS values.
T = Trace of Precipitation, MM = Missing Value Source: Averaged Metar Reports

Daily Weather History Graph

Daily Weather History Graph

Search for Another Location

Airport or City:

Astronomy

Sep. 12, 2019 Rise Set
Actual Time 6:41 AM EDT 7:17 PM EDT
Civil Twilight 6:14 AM EDT 7:44 PM EDT
Nautical Twilight 5:41 AM EDT 8:16 PM EDT
Astronomical Twilight 5:08 AM EDT 8:49 PM EDT
Moon 7:00 PM EDT (9/12) 4:59 AM EDT (9/12)
Length of Visible Light 13h 30m
Length of Day
12h 36m
Waxing Gibbous, 98% of the Moon is Illuminated
Sep 12
Waxing Gibbous
Sep 14
Full
Sep 21
Last Quarter
Sep 28
New
Oct 5
First Quarter

Hourly Weather History & Observations

Time (EDT) Temp. Heat Index Dew Point Humidity Pressure Visibility Wind Dir Wind Speed Gust Speed Precip Events Conditions
12:15 AM 75.2 °F - 71.6 °F 89% 30.09 in 10.0 mi Calm Calm - N/A   Clear
12:35 AM 73.4 °F - 71.6 °F 94% 30.09 in 10.0 mi West 3.5 mph - N/A   Clear
12:55 AM 75.2 °F - 71.6 °F 89% 30.09 in 9.0 mi WSW 3.5 mph - N/A   Clear
1:15 AM 73.4 °F - 71.6 °F 94% 30.07 in 6.0 mi Calm Calm - N/A   Clear
1:35 AM 73.4 °F - 73.4 °F 100% 30.07 in 4.0 mi Variable 4.6 mph - N/A   Clear
1:55 AM 73.4 °F - 73.4 °F 100% 30.06 in 3.0 mi Variable 3.5 mph - N/A   Clear
2:15 AM 73.4 °F - 73.4 °F 100% 30.06 in 5.0 mi WSW 3.5 mph - N/A   Clear
2:35 AM 73.4 °F - 71.6 °F 94% 30.06 in 7.0 mi WSW 3.5 mph - N/A   Clear
2:55 AM 73.4 °F - 71.6 °F 94% 30.07 in 8.0 mi WNW 12.7 mph - N/A   Partly Cloudy
3:15 AM 73.4 °F - 71.6 °F 94% 30.07 in 10.0 mi WNW 10.4 mph - N/A   Clear
3:35 AM 73.4 °F - 69.8 °F 88% 30.06 in 7.0 mi NW 9.2 mph - N/A Rain Light Rain
3:55 AM 73.4 °F - 69.8 °F 88% 30.07 in 7.0 mi NW 11.5 mph - 0.03 in Rain Light Rain
4:15 AM 71.6 °F - 69.8 °F 94% 30.07 in 5.0 mi WNW 9.2 mph - N/A Rain Light Rain
4:35 AM 71.6 °F - 69.8 °F 94% 30.06 in 10.0 mi NW 6.9 mph 16.1 mph N/A   Clear
4:55 AM 71.6 °F - 69.8 °F 94% 30.05 in 10.0 mi WNW 4.6 mph - 0.02 in   Clear
5:15 AM 71.6 °F - 69.8 °F 94% 30.05 in 9.0 mi WSW 4.6 mph - N/A   Clear
5:35 AM 71.6 °F - 69.8 °F 94% 30.06 in 10.0 mi West 8.1 mph - N/A   Clear
5:55 AM 69.8 °F - 69.8 °F 100% 30.06 in 9.0 mi West 6.9 mph - N/A   Clear
6:15 AM 69.8 °F - 69.8 °F 100% 30.07 in 9.0 mi West 5.8 mph - N/A   Clear
6:35 AM 69.8 °F - 68.0 °F 94% 30.07 in 9.0 mi West 6.9 mph - N/A   Clear
6:55 AM 69.8 °F - 68.0 °F 94% 30.08 in 7.0 mi West 4.6 mph - N/A   Clear
7:15 AM 71.6 °F - 68.0 °F 88% 30.09 in 9.0 mi West 5.8 mph - N/A   Clear
7:35 AM 71.6 °F - 69.8 °F 94% 30.09 in 9.0 mi WNW 8.1 mph - N/A   Clear
7:55 AM 73.4 °F - 69.8 °F 88% 30.09 in 10.0 mi WNW 9.2 mph - N/A   Clear
8:15 AM 73.4 °F - 69.8 °F 88% 30.10 in 10.0 mi NW 8.1 mph - N/A   Clear
8:35 AM 75.2 °F - 69.8 °F 83% 30.11 in 10.0 mi WNW 5.8 mph - N/A   Clear
8:55 AM 75.2 °F - 69.8 °F 83% 30.11 in 10.0 mi WNW 6.9 mph - N/A   Clear
9:15 AM 77.0 °F - 69.8 °F 78% 30.11 in 10.0 mi WNW 6.9 mph - N/A   Clear
9:35 AM 77.0 °F - 69.8 °F 78% 30.11 in 10.0 mi WNW 8.1 mph - N/A   Clear
9:55 AM 77.0 °F - 69.8 °F 78% 30.11 in 10.0 mi WNW 9.2 mph - N/A   Clear
10:15 AM 78.8 °F - 69.8 °F 74% 30.12 in 10.0 mi NW 11.5 mph - N/A   Clear
10:55 AM 80.6 °F 83.2 °F 68.0 °F 65% 30.11 in 10.0 mi NW 11.5 mph - N/A   Clear
11:15 AM 82.4 °F 86.3 °F 69.8 °F 66% 30.11 in 10.0 mi NW 9.2 mph - N/A   Clear
11:35 AM 80.6 °F 83.9 °F 69.8 °F 70% 30.12 in 10.0 mi North 8.1 mph - N/A   Scattered Clouds
11:55 AM 80.6 °F 83.9 °F 69.8 °F 70% 30.11 in 10.0 mi NNW 8.1 mph - N/A   Scattered Clouds
12:15 PM 80.6 °F 83.9 °F 69.8 °F 70% 30.11 in 10.0 mi NNW 6.9 mph 13.8 mph N/A   Scattered Clouds
12:35 PM 80.6 °F 83.9 °F 69.8 °F 70% 30.10 in 10.0 mi NNW 9.2 mph - N/A   Partly Cloudy
12:55 PM 82.4 °F 86.3 °F 69.8 °F 66% 30.10 in 10.0 mi NNW 10.4 mph - N/A   Clear
1:15 PM 82.4 °F 86.3 °F 69.8 °F 66% 30.10 in 10.0 mi North 11.5 mph - N/A   Clear
1:35 PM 84.2 °F 88.4 °F 69.8 °F 62% 30.09 in 10.0 mi WNW 9.2 mph - N/A   Clear
1:55 PM 82.4 °F 86.3 °F 69.8 °F 66% 30.09 in 10.0 mi West 6.9 mph - N/A   Partly Cloudy
2:15 PM 84.2 °F 87.3 °F 68.0 °F 58% 30.09 in 10.0 mi WNW 8.1 mph 13.8 mph N/A   Mostly Cloudy
2:35 PM 82.4 °F 86.3 °F 69.8 °F 66% 30.09 in 10.0 mi NW 8.1 mph - N/A   Mostly Cloudy
2:55 PM 84.2 °F 88.4 °F 69.8 °F 62% 30.08 in 10.0 mi NW 6.9 mph - N/A   Partly Cloudy
3:15 PM 78.8 °F - 69.8 °F 74% 30.09 in 2.5 mi WNW 6.9 mph 15.0 mph N/A Rain Light Rain
3:35 PM 77.0 °F - 73.4 °F 89% 30.09 in 5.0 mi NW 5.8 mph - N/A   Haze
3:55 PM 80.6 °F 84.6 °F 71.6 °F 74% 30.08 in 10.0 mi Variable 3.5 mph - 0.11 in   Clear
4:15 PM 82.4 °F 87.2 °F 71.6 °F 70% 30.08 in 10.0 mi NNW 5.8 mph - N/A   Clear
4:35 PM 82.4 °F 86.3 °F 69.8 °F 66% 30.08 in 10.0 mi NNW 8.1 mph - N/A   Clear
4:55 PM 82.4 °F 86.3 °F 69.8 °F 66% 30.09 in 10.0 mi NNW 11.5 mph 17.3 mph N/A   Clear
5:15 PM 77.0 °F - 69.8 °F 78% 30.11 in 10.0 mi North 17.3 mph 23.0 mph N/A   Mostly Cloudy
5:35 PM 71.6 °F - 69.8 °F 94% 30.12 in 1.2 mi North 6.9 mph - N/A Rain Rain
5:55 PM 71.6 °F - 71.6 °F 100% 30.12 in 10.0 mi NNE 6.9 mph 13.8 mph 0.14 in   Scattered Clouds
6:15 PM 71.6 °F - 71.6 °F 100% 30.13 in 10.0 mi NNE 8.1 mph - N/A   Partly Cloudy
6:35 PM 71.6 °F - 71.6 °F 100% 30.13 in 10.0 mi Calm Calm - N/A   Clear
6:55 PM 71.6 °F - 71.6 °F 100% 30.14 in 10.0 mi ENE 4.6 mph - N/A   Mostly Cloudy
7:15 PM 71.6 °F - 71.6 °F 100% 30.15 in 10.0 mi Calm Calm 13.8 mph N/A   Mostly Cloudy
7:35 PM 71.6 °F - 71.6 °F 100% 30.16 in - Calm Calm 11.5 mph N/A   Mostly Cloudy
7:55 PM 71.6 °F - 69.8 °F 94% 30.16 in 10.0 mi ENE 5.8 mph 13.8 mph N/A   Overcast
8:15 PM 71.6 °F - 69.8 °F 94% 30.17 in 10.0 mi ENE 5.8 mph 13.8 mph N/A   Overcast
8:35 PM 71.6 °F - 69.8 °F 94% 30.18 in 10.0 mi ENE 9.2 mph 20.7 mph N/A   Mostly Cloudy
8:55 PM 71.6 °F - 69.8 °F 94% 30.20 in 10.0 mi ENE 9.2 mph 17.3 mph N/A   Mostly Cloudy
9:15 PM 71.6 °F - 69.8 °F 94% 30.21 in 9.0 mi ENE 9.2 mph 16.1 mph N/A   Overcast
9:35 PM 71.6 °F - 69.8 °F 94% 30.21 in 9.0 mi ENE 10.4 mph 16.1 mph N/A   Overcast
9:55 PM 69.8 °F - 68.0 °F 94% 30.22 in 9.0 mi East 11.5 mph 24.2 mph N/A   Overcast
10:15 PM 69.8 °F - 68.0 °F 94% 30.22 in 4.0 mi East 12.7 mph 19.6 mph N/A Rain Light Rain
10:35 PM 68.0 °F - 68.0 °F 100% 30.23 in 2.5 mi East 11.5 mph 18.4 mph N/A Rain Light Rain
10:55 PM 68.0 °F - 68.0 °F 100% 30.23 in 3.0 mi East 13.8 mph 20.7 mph 0.03 in Rain Light Rain
11:15 PM 66.2 °F - 66.2 °F 100% 30.24 in 3.0 mi East 18.4 mph - N/A   Light Drizzle
11:35 PM 66.2 °F - 66.2 °F 100% 30.25 in 5.0 mi East 12.7 mph - N/A   Overcast
11:55 PM 66.2 °F - 64.4 °F 94% 30.25 in 2.0 mi ESE 13.8 mph 21.9 mph N/A Rain Light Rain